Home   Weather   Abilene   Past weeks

Flag for USA Past Weather in Abilene, Texas, USA — Yesterday and Last 2 Weeks

Now
61 °F

Clear.


Feels Like: 61 °F
Forecast: 55 / 73 °F
Wind: 5 mph from North

Location: Abilene Regional Airport

Current Time: Sep 29, 2016 at 3:32:18 AM

Latest Report: Sep 29, 2016 at 2:52 AM


Visibility: 10 mi

Pressure: 30.15 "Hg (28.34 "Hg at 524m altitude)

Humidity: 83%

Dew Point: 56 °F

Location of AbileneLocation

Past Weather in Abilene — Graph

°F

Abilene Temperature Yesterday

Maximum temperature yesterday: 85 °F (at 3:52 PM)
Minimum temperature yesterday: 55 °F (at 3:52 AM)
Average temperature yesterday: 69 °F

High & Low Weather Summary for the Past Weeks

 TemperatureHumidityPressure
High93 °F (Sep 19, 2:52 PM)100% (Sep 16, 4:52 AM)30.24 "Hg (Sep 16, 4:52 AM)
Low55 °F (Sep 28, 3:52 AM)26% (Sep 28, 4:52 PM)29.78 "Hg (Sep 24, 4:52 PM)
Average75 °F72%30.00 "Hg
* Reported Sep 14 1:52 AM — Sep 29 1:52 AM, Abilene, Weather by CustomWeather, © 2016

Note: Actual official high and low records may vary slightly from our data, if they occured in-between our weather recording intervals... More about our weather records

Advertising

Abilene Weather History for the Previous 24 Hours

Scroll right to see more
 ConditionsComfort  
Time TempWeatherWind HumidityBarometerVisibility
1:52 AM
Thu, Sep 29
61 °FClear.9 mph83%30.14 "Hg10 mi
12:52 AM59 °FClear.5 mph93%30.13 "Hg10 mi
11:52 PM
Wed, Sep 28
62 °FClear.5 mph80%30.13 "Hg10 mi
10:52 PM63 °FClear.3 mph84%30.12 "Hg10 mi
9:52 PM68 °FClear.5 mph65%30.10 "Hg10 mi
8:52 PM72 °FClear.6 mph55%30.08 "Hg10 mi
7:52 PM78 °FClear.5 mph37%30.06 "Hg10 mi
6:52 PM81 °FSunny.3 mph32%30.05 "Hg10 mi
5:52 PM84 °FSunny.3 mph26%30.04 "Hg10 mi
4:52 PM84 °FSunny.No wind26%30.04 "Hg10 mi
3:52 PM85 °FSunny.5 mph30%30.04 "Hg8 mi
2:52 PM83 °FSunny.5 mph28%30.05 "Hg10 mi
1:52 PM83 °FSunny.5 mph31%30.07 "Hg10 mi
12:52 PM81 °FSunny.5 mph34%30.09 "Hg10 mi
11:52 AM77 °FSunny.3 mph42%30.09 "Hg10 mi
10:52 AM73 °FSunny.3 mph51%30.11 "Hg10 mi
9:52 AM67 °FSunny.No wind63%30.10 "Hg10 mi
8:52 AM61 °FSunny.No wind72%30.08 "Hg10 mi
7:52 AM55 °FSunny.3 mph80%30.06 "Hg10 mi
6:52 AM56 °FClear.No wind77%30.05 "Hg10 mi
5:52 AM57 °FClear.No wind72%30.03 "Hg10 mi
4:52 AM55 °FClear.6 mph80%30.02 "Hg10 mi
3:52 AM55 °FClear.6 mph80%30.02 "Hg10 mi
Weather by CustomWeather, © 2016

See weather overviewHow to use our weather pages